Simultaneous Nadir Overpasses (SNOs) Predictions

Prediction of SNOs between METOP-A and NPP Satellite Orbit:

Table of predicted SNOs for the next 14.0 days since TLE Epoch: 10/2/2013
Index Date (METOP-A) Time (METOP-A) Lat,Lon (METOP-A) SZA (METOP-A ) Date (NPP) Time (NPP) Lat,Lon (NPP) SZA (NPP ) Distance(km) Time Diff (sec)
1 10/16/2013 11:52:58 -73.55, 175.17 97.48 10/16/2013 11:51:51 -73.56, 172.23 97.40 92.63 67
2 10/16/2013 12:43:42 73.33, -17.99 82.32 10/16/2013 12:42:32 73.32, -19.93 82.37 61.69 70
3 10/16/2013 13:34:25 -73.28, 149.22 97.72 10/16/2013 13:33:15 -73.26, 147.53 97.69 54.29 70
4 10/16/2013 14:25:09 73.05, -43.93 82.09 10/16/2013 14:23:56 73.02, -44.64 82.08 23.38 73
5 10/16/2013 15:15:53 -72.95, 123.18 98.00 10/16/2013 15:14:39 -72.96, 122.80 97.98 12.47 74
6 10/16/2013 16:06:34 72.88, -69.64 81.95 10/16/2013 16:05:23 72.88, -69.70 81.95 2.18 71
7 10/16/2013 16:57:16 -72.88, 97.69 98.05 10/16/2013 16:56:07 -72.87, 97.64 98.05 2.64 69




NCC Satellite Simultaneous Nadir Overpasses (SNOs) Prediction Service
